{"data":{"norad_id":59870,"epoch":"2026-05-25T04:41:23.284032Z","epoch_age_seconds":55200,"freshness":"FRESH","line1":"1 59870U 24098N   26145.19540838  .00001397  00000+0  60291-4 0  9999","line2":"2 59870  43.0017 201.8695 0001687 263.8646  96.2013 15.27569411113595","mean_motion":15.27569411,"eccentricity":0.0001687,"inclination_deg":43.0017,"raan_deg":201.8695,"arg_perigee_deg":263.8646,"mean_anomaly_deg":96.2013,"bstar":6.0291e-5,"rev_number":11359,"period_min":94.267402163894,"perigee_km":481.92331605474,"apogee_km":484.23829094163,"semimajor_km":6861.2178034982,"source":"CELESTRAK","updated_at":"2026-05-25T13:38:19.092854Z"}}